Wind_Speed
4 4 4 4 3 3 1 1 1 0 1 2 3 4 4 5 5 5 6 6 7 7 7 7 8 8 8 8 9 9 10 11 11 12 13 14 13 13 13 13 13 13 13
4 4 4 4 3 2 2 1 1 1 2 3 4 4 6 6 7 6 6 7 7 8 9 9 8 9 9 10 10 12 12 12 13 13 12 13 13 14 14 15 15 14 14
4 4 4 4 3 3 2 2 2 2 3 4 5 5 6 7 7 7 7 8 8 9 10 10 10 10 11 11 12 12 13 13 13 13 13 13 13 13 14 14 14 14 14
5 5 4 4 3 4 3 3 3 4 4 4 5 6 7 7 8 9 8 9 10 10 11 11 11 11 12 12 13 13 14 13 13 14 14 14 13 13 13 13 13 14 15
6 5 4 4 4 4 4 4 4 5 5 5 5 6 6 7 7 8 9 10 10 10 11 12 12 12 12 12 13 13 14 13 13 14 14 14 14 14 14 14 14 13 14
7 6 5 4 4 4 4 5 5 6 5 5 6 6 7 7 8 8 9 10 10 10 12 13 13 13 13 13 13 14 14 14 14 15 14 14 15 15 15 15 15 15 14
8 7 6 5 5 5 5 5 5 6 6 6 6 6 7 8 9 9 10 11 10 11 12 12 13 14 13 13 14 14 15 15 16 15 14 14 14 14 15 15 16 15 15
9 8 7 6 6 6 6 7 7 7 8 8 8 8 8 7 8 9 10 11 11 11 12 14 14 13 14 14 14 15 15 15 15 15 15 15 15 15 15 16 16 16 16
10 9 8 8 8 8 8 9 8 8 8 8 8 8 9 8 9 9 10 11 12 13 13 13 14 14 14 15 15 16 16 15 15 15 15 15 15 15 16 16 16 17 16
10 10 10 9 9 9 9 9 10 10 10 10 9 9 10 10 10 10 11 12 12 13 13 14 14 15 15 15 16 17 17 17 17 16 16 16 16 16 16 16 16 16 17
10 10 10 10 10 10 10 10 10 11 11 11 11 11 11 12 12 12 12 13 13 14 14 14 15 15 16 17 17 17 17 17 17 17 17 16 16 16 16 16 16 17 17
9 10 10 10 11 11 11 11 12 12 12 11 12 12 12 13 12 12 13 13 14 15 14 15 16 17 17 17 17 17 17 17 17 17 17 17 17 16 16 16 17 18 18
10 10 10 11 11 12 12 12 12 12 12 12 13 13 13 13 13 14 14 14 15 15 15 15 16 17 17 17 17 17 17 17 17 17 17 17 17 17 17 17 17 18 18
10 10 11 11 12 12 12 12 12 12 13 13 13 14 14 13 13 14 14 15 15 15 16 16 17 16 16 17 17 17 17 17 17 17 17 18 18 18 18 18 19 19 19
11 10 11 12 12 13 13 13 13 13 13 13 14 14 14 13 13 14 15 15 15 15 16 17 17 17 17 17 16 17 17 17 17 17 17 18 18 18 18 18 19 19 19
11 11 12 12 13 14 14 13 13 13 14 14 14 14 14 14 14 15 15 16 16 16 16 16 17 17 17 17 17 17 17 16 17 18 18 18 18 18 18 17 18 18 18
11 12 13 14 14 14 14 14 14 14 14 14 15 15 15 15 15 16 16 16 16 17 17 17 17 17 18 18 17 18 18 18 17 17 17 17 17 17 17 17 18 18 18
13 14 14 15 15 15 15 15 14 15 15 16 16 16 17 17 17 17 18 18 18 18 18 18 18 18 18 18 19 19 19 19 18 17 17 17 17 17 17 17 17 18 18
15 15 16 16 16 16 16 16 16 16 16 17 17 18 18 18 18 18 19 19 19 18 18 18 18 19 19 19 19 19 19 19 18 18 17 17 17 17 17 17 17 17 17
17 17 17 17 17 17 17 17 17 17 18 18 18 18 19 19 19 19 20 20 20 20 19 19 19 20 19 19 20 20 19 19 18 18 17 17 17 18 18 18 17 18 18
18 18 18 19 19 19 19 19 19 20 19 20 20 20 20 20 21 21 21 21 21 21 21 21 21 20 20 20 20 21 20 20 20 18 18 18 18 18 18 18 19 19 19
20 20 20 20 20 20 21 21 21 21 21 21 21 21 22 22 23 23 23 23 23 23 22 22 21 22 22 22 22 22 21 21 20 20 20 20 19 19 19 19 19 19 20
22 21 21 21 21 22 22 23 23 23 22 23 23 24 24 24 24 24 24 24 24 24 24 24 23 23 23 23 23 22 23 23 22 21 21 21 21 20 20 20 20 20 21
23 23 23 23 23 23 24 24 25 25 25 25 25 26 26 26 26 25 25 25 25 25 25 25 24 24 24 24 24 24 24 24 23 23 22 22 21 21 21 21 20 20 20
25 25 25 25 25 25 26 26 26 27 27 26 27 27 27 27 27 27 27 26 26 26 27 27 27 26 26 25 25 25 26 25 25 24 23 22 21 21 21 21 21 20 20
27 27 27 27 27 27 27 27 28 28 28 28 28 28 28 28 28 28 28 28 28 27 27 27 27 27 27 27 26 26 27 26 25 24 24 24 23 22 22 22 22 22 22
Wind_Direction
65 60 59 64 58 52 40 22 9 304 283 286 297 290 289 294 293 292 296 296 293 293 290 289 290 289 288 289 292 294 295 291 288 288 284 281 280 273 268 265 264 263 262
58 53 45 43 49 43 31 340 307 282 278 284 288 293 295 293 291 291 291 295 296 294 294 294 292 292 292 294 295 294 295 294 291 293 291 284 278 272 270 267 266 264 262
38 28 20 18 25 16 5 347 332 323 306 294 292 294 294 291 290 289 289 293 297 294 293 295 293 293 295 295 295 296 298 296 290 289 290 290 285 279 276 272 269 268 265
20 11 3 2 7 3 360 348 341 333 320 311 303 297 296 296 294 291 290 291 293 294 293 295 295 296 295 296 296 298 300 297 291 287 287 288 286 282 281 273 273 271 263
11 4 3 7 360 358 352 341 335 327 322 315 313 307 300 298 301 299 300 293 294 294 295 295 297 298 297 297 296 297 299 297 293 290 287 282 280 277 278 274 275 274 268
14 9 5 7 2 350 339 340 337 324 317 314 318 313 310 307 309 312 312 307 303 299 297 297 297 296 296 299 299 296 296 297 293 291 288 284 283 278 274 274 274 272 270
19 16 11 3 357 348 340 340 335 329 325 322 320 317 316 313 310 315 315 316 309 306 303 300 299 299 299 297 296 299 297 297 295 292 289 285 282 278 275 275 273 272 270
17 15 11 359 348 344 343 344 342 339 337 333 325 318 317 320 316 316 317 314 312 305 303 302 300 299 299 300 296 298 300 298 299 296 291 285 281 278 276 276 275 275 274
18 18 14 5 357 351 345 342 339 342 338 333 330 326 324 323 321 323 319 315 313 312 303 301 304 304 304 302 300 299 297 298 300 298 293 290 285 280 279 276 275 275 275
15 15 16 14 10 3 357 348 343 342 341 337 330 330 329 326 324 326 322 320 316 313 309 305 305 304 305 306 302 302 298 297 296 295 294 293 291 285 279 276 275 275 275
10 10 11 12 9 3 359 354 349 345 343 341 336 331 328 325 326 325 324 322 321 320 319 311 306 307 306 305 305 304 302 300 297 296 293 294 293 288 283 278 276 276 276
5 3 2 0 2 359 355 353 351 347 345 341 338 331 325 323 322 321 321 321 323 320 321 317 313 310 308 307 307 305 305 302 298 297 294 292 291 288 285 282 280 276 274
360 358 356 357 356 353 350 349 348 348 346 343 338 332 324 321 321 321 323 324 325 324 321 318 318 315 312 310 308 307 305 303 301 297 296 293 290 288 286 283 283 280 278
352 352 351 351 352 351 348 348 346 344 343 341 338 335 330 326 323 323 322 322 324 325 325 325 322 316 315 312 309 310 307 304 303 301 297 293 290 289 287 284 282 282 282
347 346 347 346 346 345 344 343 343 342 341 340 337 335 333 329 326 324 323 321 322 323 324 325 323 320 317 315 313 313 313 309 304 302 300 296 292 289 288 286 285 281 281
342 342 342 342 341 340 341 340 339 339 338 338 339 338 336 332 327 327 325 323 322 324 326 327 326 322 321 321 319 315 314 311 308 305 303 300 295 291 291 289 288 285 284
337 337 337 337 337 336 335 335 334 335 335 335 336 336 335 332 330 327 325 325 324 324 324 324 323 322 321 320 319 317 315 313 311 309 308 308 304 299 296 294 293 290 287
332 331 333 334 334 334 332 331 330 328 330 331 331 332 332 329 326 325 324 323 321 320 321 321 321 321 319 319 318 317 316 313 311 309 308 306 306 304 301 298 295 292 290
330 328 329 330 330 329 328 325 324 325 325 325 326 327 328 329 326 323 322 322 321 320 320 320 319 319 319 317 317 317 316 313 311 310 308 306 307 307 305 302 300 299 295
326 326 325 324 325 325 324 322 322 322 323 321 322 322 323 325 325 322 321 321 321 321 320 320 319 319 319 318 317 316 315 314 311 310 309 307 306 305 304 302 300 298 295
321 321 322 322 321 322 321 319 318 318 319 319 317 318 319 319 319 319 318 316 316 316 317 316 315 315 317 317 316 314 313 312 312 311 309 307 305 303 302 301 300 298 296
316 315 315 316 318 319 319 317 316 315 316 316 314 314 314 315 314 315 314 313 313 313 314 315 314 315 316 316 316 314 314 315 313 311 309 306 304 303 302 300 299 299 298
310 310 310 310 312 313 314 315 314 312 312 312 311 310 311 311 311 311 310 309 309 310 310 311 312 313 313 313 312 311 311 312 312 309 307 306 303 303 301 300 300 300 299
306 306 306 306 306 307 308 310 311 311 309 309 308 308 307 308 310 311 311 310 308 306 306 306 307 309 311 310 309 309 309 309 309 307 305 304 302 301 301 301 299 296 296
302 303 304 303 303 303 305 306 307 308 308 307 306 304 305 306 306 306 306 306 304 304 303 302 303 304 305 307 306 305 305 305 305 304 304 303 302 301 300 300 299 298 297
301 302 304 303 302 301 303 305 305 305 305 305 305 303 303 304 305 306 306 304 303 303 301 300 299 300 302 303 303 302 302 303 302 302 302 302 301 300 300 300 299 298 298
Height
5890 5890 5889 5889 5889 5889 5889 5888 5888 5888 5889 5889 5889 5889 5888 5888 5888 5888 5888 5888 5887 5887 5887 5887 5886 5886 5886 5885 5885 5884 5884 5883 5883 5882 5882 5881 5881 5881 5881 5881 5882 5882 5882
5891 5890 5890 5890 5889 5889 5889 5888 5888 5888 5888 5888 5888 5888 5888 5887 5887 5887 5887 5887 5886 5886 5886 5885 5885 5884 5884 5883 5883 5882 5881 5880 5880 5879 5879 5878 5878 5877 5877 5878 5878 5879 5879
5892 5891 5891 5890 5890 5889 5889 5888 5887 5887 5888 5888 5887 5887 5887 5886 5886 5886 5885 5885 5885 5884 5884 5884 5883 5883 5882 5881 5880 5879 5878 5878 5877 5876 5876 5875 5874 5874 5874 5874 5874 5875 5875
5893 5892 5891 5891 5890 5889 5889 5888 5888 5887 5887 5887 5886 5886 5886 5885 5885 5884 5884 5883 5883 5882 5882 5882 5881 5880 5880 5879 5878 5877 5876 5875 5874 5873 5872 5872 5871 5871 5870 5870 5871 5871 5871
5893 5892 5892 5891 5890 5890 5889 5888 5888 5887 5886 5886 5885 5885 5884 5884 5883 5882 5882 5881 5881 5880 5880 5879 5879 5878 5877 5876 5875 5874 5873 5872 5871 5870 5869 5868 5868 5867 5867 5867 5867 5867 5867
5894 5892 5892 5891 5890 5889 5888 5888 5887 5886 5885 5885 5884 5883 5883 5882 5882 5880 5880 5879 5879 5878 5878 5877 5876 5875 5874 5873 5872 5871 5869 5868 5867 5866 5865 5864 5864 5863 5863 5863 5863 5863 5863
5894 5893 5892 5891 5890 5890 5889 5887 5887 5886 5885 5884 5883 5882 5882 5881 5880 5879 5878 5877 5876 5876 5875 5874 5873 5872 5871 5870 5869 5867 5866 5865 5864 5862 5861 5860 5860 5859 5859 5859 5859 5859 5859
5894 5893 5892 5891 5890 5889 5888 5887 5886 5885 5884 5883 5882 5881 5880 5880 5878 5877 5876 5875 5874 5873 5872 5871 5870 5869 5868 5867 5865 5864 5862 5861 5860 5859 5858 5857 5856 5855 5855 5855 5855 5855 5855
5895 5894 5892 5891 5890 5889 5888 5887 5886 5885 5884 5883 5881 5881 5879 5878 5877 5876 5875 5874 5873 5871 5870 5869 5868 5866 5865 5864 5862 5861 5859 5858 5856 5855 5854 5853 5852 5851 5851 5851 5851 5850 5851
5896 5894 5893 5891 5890 5889 5888 5887 5886 5884 5883 5882 5880 5879 5878 5877 5876 5875 5874 5872 5871 5869 5867 5866 5865 5863 5862 5860 5859 5857 5856 5854 5853 5852 5850 5849 5848 5847 5847 5846 5846 5846 5846
5896 5895 5894 5892 5891 5889 5888 5887 5885 5884 5882 5881 5879 5878 5877 5875 5874 5874 5873 5871 5869 5867 5865 5863 5862 5860 5859 5857 5855 5853 5852 5850 5849 5848 5847 5845 5844 5843 5842 5842 5842 5842 5842
5897 5895 5894 5893 5891 5889 5888 5886 5884 5883 5881 5879 5878 5876 5875 5874 5872 5871 5870 5868 5867 5865 5863 5861 5859 5857 5856 5854 5852 5850 5848 5846 5845 5844 5842 5841 5840 5839 5838 5838 5837 5837 5837
5897 5895 5894 5892 5891 5889 5887 5886 5884 5882 5880 5878 5877 5875 5873 5872 5870 5869 5867 5866 5864 5862 5860 5858 5856 5854 5852 5851 5849 5847 5845 5843 5841 5840 5838 5837 5836 5835 5834 5834 5833 5832 5832
5896 5895 5893 5892 5890 5889 5887 5885 5883 5881 5879 5877 5875 5873 5871 5869 5868 5866 5865 5863 5862 5860 5857 5855 5853 5851 5849 5847 5845 5843 5841 5839 5838 5836 5834 5833 5831 5831 5829 5829 5828 5827 5827
5896 5894 5893 5891 5890 5888 5886 5884 5882 5880 5878 5876 5874 5872 5869 5868 5866 5864 5862 5861 5859 5857 5855 5853 5851 5848 5846 5844 5842 5840 5837 5835 5833 5832 5830 5828 5827 5826 5825 5824 5823 5822 5822
5895 5894 5892 5891 5889 5887 5885 5883 5881 5879 5877 5875 5873 5870 5868 5866 5864 5862 5860 5858 5856 5855 5852 5850 5848 5845 5843 5840 5838 5836 5833 5831 5829 5827 5826 5824 5822 5821 5820 5819 5817 5816 5816
5894 5893 5891 5890 5888 5886 5883 5881 5879 5878 5876 5874 5871 5869 5866 5864 5862 5860 5857 5855 5853 5852 5849 5847 5845 5842 5840 5837 5835 5832 5830 5827 5825 5823 5821 5819 5818 5816 5815 5814 5812 5811 5810
5893 5891 5890 5888 5886 5884 5881 5879 5877 5875 5874 5872 5870 5867 5865 5862 5860 5858 5855 5853 5850 5848 5846 5844 5841 5839 5836 5834 5831 5829 5826 5823 5821 5819 5817 5815 5814 5812 5811 5809 5808 5806 5805
5891 5889 5888 5886 5884 5882 5879 5877 5875 5873 5871 5869 5867 5865 5862 5860 5857 5855 5852 5850 5847 5844 5842 5840 5838 5835 5833 5830 5828 5825 5822 5820 5818 5815 5813 5811 5809 5808 5806 5804 5803 5802 5800
5889 5887 5885 5883 5881 5879 5877 5875 5872 5870 5868 5866 5864 5862 5859 5857 5854 5851 5849 5846 5844 5841 5838 5836 5834 5832 5829 5826 5824 5821 5819 5816 5814 5811 5809 5807 5805 5803 5802 5800 5798 5797 5795
5886 5884 5882 5880 5878 5876 5874 5871 5869 5867 5865 5863 5860 5858 5855 5853 5850 5848 5845 5842 5840 5837 5835 5832 5830 5827 5825 5822 5819 5817 5814 5812 5809 5807 5805 5803 5801 5799 5797 5795 5793 5792 5790
5883 5881 5879 5877 5874 5872 5870 5868 5866 5863 5861 5859 5857 5854 5852 5849 5846 5843 5840 5838 5835 5833 5830 5827 5825 5823 5820 5817 5815 5812 5809 5807 5805 5802 5800 5798 5796 5794 5792 5790 5788 5786 5785
5879 5877 5875 5873 5871 5868 5866 5863 5861 5859 5857 5854 5852 5850 5847 5845 5842 5839 5836 5833 5831 5828 5825 5823 5820 5817 5815 5812 5809 5807 5804 5802 5799 5797 5795 5793 5790 5789 5787 5785 5782 5781 5779
5874 5872 5870 5868 5866 5864 5861 5859 5856 5854 5851 5849 5847 5844 5842 5839 5836 5833 5831 5828 5825 5822 5820 5817 5814 5812 5809 5806 5804 5801 5799 5796 5794 5791 5789 5787 5785 5783 5781 5779 5777 5775 5773
5868 5867 5865 5863 5861 5859 5856 5853 5850 5848 5845 5843 5841 5838 5836 5833 5830 5827 5825 5822 5819 5816 5813 5811 5808 5806 5803 5800 5798 5795 5793 5790 5788 5785 5783 5781 5779 5777 5775 5773 5771 5769 5767
5862 5860 5858 5856 5854 5852 5850 5847 5844 5842 5839 5837 5835 5832 5829 5827 5824 5821 5818 5815 5812 5809 5806 5804 5801 5799 5796 5794 5791 5789 5786 5784 5781 5779 5777 5775 5773 5771 5769 5767 5764 5762 5761